�N����,����,�~����,�C��,���x,�C��,����,���ϕ���,�ő�u�ԕ���,�ő厞����,���˗�,�I�_���x,�n�����x,�ő啗���N��,DTYPE
"23/08/13","00:10",0.0,26.1,80.1,997.4,328.1,0.8,1.6,338.4,0.00,22.4,26.3,"00:00:16",1
"23/08/13","00:20",0.0,26.0,80.8,997.4,327.6,1.3,2.8,340.0,0.00,22.5,26.3,"00:18:40",1
"23/08/13","00:30",0.0,26.3,80.5,997.2,329.6,2.0,2.8,300.8,0.00,22.7,26.3,"00:20:08",1
"23/08/13","00:40",0.0,26.3,80.2,997.2,332.9,1.6,3.2,349.1,0.00,22.7,26.2,"00:33:36",1
"23/08/13","00:50",0.0,26.2,80.4,997.4,320.4,1.2,2.2,314.3,0.00,22.6,26.3,"00:42:00",1
"23/08/13","01:00",0.0,26.1,80.8,997.2,317.5,1.1,3.6,346.3,0.00,22.6,26.0,"00:56:24",1
"23/08/13","01:10",0.0,26.1,81.2,997.4,312.4,1.2,2.5,308.7,0.00,22.7,26.2,"01:01:20",1
"23/08/13","01:20",0.0,26.0,81.5,997.4,320.6,1.5,2.6,326.0,0.00,22.6,26.1,"01:14:48",1
"23/08/13","01:30",0.0,25.8,81.8,997.9,281.7,0.6,1.3,298.2,0.00,22.5,26.2,"01:23:04",1
"23/08/13","01:40",0.0,25.8,82.2,997.7,302.8,1.0,1.9,316.8,0.00,22.6,26.1,"01:32:56",1
"23/08/13","01:50",0.0,25.8,82.6,997.4,307.6,0.8,1.4,327.3,0.00,22.7,26.0,"01:46:08",1
"23/08/13","02:00",0.0,25.6,83.1,997.4,329.6,1.0,1.2,343.4,0.00,22.6,26.2,"01:55:20",1
"23/08/13","02:10",0.0,25.7,83.6,997.7,309.5,1.0,1.9,333.7,0.00,22.8,25.9,"02:06:32",1
"23/08/13","02:20",0.0,25.7,83.8,997.4,328.7,1.2,2.1,331.3,0.00,22.8,26.0,"02:11:12",1
"23/08/13","02:30",0.0,25.7,84.0,997.7,331.9,1.7,2.7,336.3,0.00,22.8,25.9,"02:26:16",1
"23/08/13","02:40",0.0,25.8,83.9,997.9,317.2,1.5,2.6,328.6,0.00,22.9,26.0,"02:33:36",1
"23/08/13","02:50",0.0,25.7,84.0,997.7,313.4,1.3,2.4,335.2,0.00,22.8,25.7,"02:47:12",1
"23/08/13","03:00",0.0,25.6,84.2,997.2,329.1,1.7,2.7,349.8,0.00,22.8,25.9,"02:59:36",1
"23/08/13","03:10",0.0,25.6,84.4,997.4,323.1,1.6,2.5,337.3,0.00,22.8,25.9,"03:02:32",1
"23/08/13","03:20",0.0,25.5,84.5,997.4,325.9,1.3,2.6,339.6,0.00,22.7,25.9,"03:13:12",1
"23/08/13","03:30",0.0,25.4,84.8,997.9,311.2,1.1,1.8,298.7,0.00,22.7,25.7,"03:26:24",1
"23/08/13","03:40",0.0,25.4,85.1,997.7,326.8,1.3,2.8,338.1,0.00,22.8,25.8,"03:39:44",1
"23/08/13","03:50",0.0,25.4,85.3,997.2,326.4,1.7,3.3,341.8,0.00,22.8,25.8,"03:40:08",1
"23/08/13","04:00",0.0,25.4,85.4,997.4,315.3,1.1,2.4,303.3,0.00,22.8,25.7,"03:52:32",1
"23/08/13","04:10",0.0,25.4,85.6,997.7,339.4,1.7,2.7,319.1,0.00,22.8,25.7,"04:07:20",1
"23/08/13","04:20",0.0,25.3,85.8,997.2,343.0,1.5,2.1,347.1,0.00,22.8,25.7,"04:12:24",1
"23/08/13","04:30",0.0,25.3,86.0,997.4,337.5,1.6,2.5,348.1,0.00,22.8,25.8,"04:21:44",1
"23/08/13","04:40",0.0,25.2,86.2,997.4,338.4,1.6,2.9,345.0,0.00,22.8,25.7,"04:36:00",1
"23/08/13","04:50",0.0,25.1,86.4,997.9,341.7,1.6,2.9,343.2,0.00,22.7,25.8,"04:43:28",1
"23/08/13","05:00",0.0,25.0,86.7,997.4,340.0,1.5,2.4,348.4,0.00,22.7,25.8,"04:56:24",1
"23/08/13","05:10",0.0,25.0,87.0,997.4,337.1,1.7,3.5,344.7,0.00,22.7,25.5,"05:01:12",1
"23/08/13","05:20",0.0,25.2,87.0,997.7,332.5,2.0,3.9,337.1,0.00,22.9,25.7,"05:18:32",1
"23/08/13","05:30",0.0,25.3,86.8,997.4,336.0,1.6,3.3,343.1,0.00,23.0,25.6,"05:21:12",1
"23/08/13","05:40",0.0,25.2,86.8,997.2,340.9,1.7,3.7,346.0,0.00,22.9,25.6,"05:30:24",1
"23/08/13","05:50",0.0,25.3,86.9,997.4,343.8,1.3,2.0,340.4,0.00,23.0,25.5,"05:40:40",1
"23/08/13","06:00",0.0,25.4,86.8,997.7,336.2,1.7,2.9,355.1,0.00,23.1,25.6,"05:56:00",1
"23/08/13","06:10",0.0,25.7,86.6,997.7,343.0,1.2,3.1,340.2,0.01,23.3,25.6,"06:01:52",1
"23/08/13","06:20",0.0,26.1,85.9,997.4,342.3,1.5,3.2,347.3,0.02,23.6,25.5,"06:18:32",1
"23/08/13","06:30",0.0,26.5,85.0,997.9,338.6,2.0,3.3,333.9,0.04,23.8,25.6,"06:28:48",1
"23/08/13","06:40",0.0,26.8,83.8,997.7,337.9,2.0,3.1,342.4,0.05,23.9,25.4,"06:30:48",1
"23/08/13","06:50",0.0,27.2,82.5,997.7,346.7,1.8,3.2,341.3,0.07,24.0,25.5,"06:42:08",1
"23/08/13","07:00",0.0,27.7,80.8,997.9,347.1,1.5,2.5,350.5,0.09,24.1,25.5,"06:54:24",1
"23/08/13","07:10",0.0,28.3,79.3,997.7,337.2,1.1,2.5,344.4,0.11,24.4,25.6,"07:04:24",1
"23/08/13","07:20",0.0,28.9,76.6,997.4,333.0,0.8,2.2,348.2,0.13,24.4,25.7,"07:19:44",1
"23/08/13","07:30",0.0,29.7,74.9,997.2,357.4,0.8,2.1,344.7,0.15,24.8,25.6,"07:20:24",1
"23/08/13","07:40",0.0,29.9,72.2,997.7,351.3,1.1,2.4,349.1,0.17,24.4,25.5,"07:36:24",1
"23/08/13","07:50",0.0,30.4,70.6,997.9,356.0,1.1,2.9,355.6,0.19,24.5,25.5,"07:49:20",1
"23/08/13","08:00",0.0,30.9,68.6,998.4,19.1,1.1,2.2,355.9,0.22,24.5,25.5,"07:50:48",1
"23/08/13","08:10",0.0,31.8,65.7,998.6,20.0,0.6,1.6,354.9,0.24,24.6,25.9,"08:06:48",1
"23/08/13","08:20",0.0,32.4,63.4,998.9,78.1,0.6,1.4,68.9,0.26,24.6,25.7,"08:11:28",1
"23/08/13","08:30",0.0,32.6,61.9,999.1,357.3,0.7,1.8,357.3,0.28,24.4,25.9,"08:25:12",1
"23/08/13","08:40",0.0,32.7,61.6,999.3,26.6,0.6,1.6,351.7,0.30,24.4,25.8,"08:36:16",1
"23/08/13","08:50",0.0,33.2,60.6,999.6,56.5,0.7,1.8,43.6,0.32,24.6,25.9,"08:43:28",1
"23/08/13","09:00",0.0,33.1,60.1,999.8,181.0,0.7,2.0,191.6,0.34,24.4,26.1,"08:56:24",1
"23/08/13","09:10",0.0,32.7,61.1,999.8,193.9,1.3,3.7,200.0,0.36,24.3,26.1,"09:01:36",1
"23/08/13","09:20",0.0,33.3,60.0,1000.0,175.3,1.0,2.8,209.7,0.38,24.5,26.0,"09:15:12",1
"23/08/13","09:30",0.0,33.9,57.5,1000.5,135.0,1.2,2.8,158.2,0.40,24.4,26.2,"09:23:52",1
"23/08/13","09:40",0.0,34.0,56.8,1000.5,182.7,1.3,3.9,228.5,0.42,24.3,26.1,"09:34:24",1
"23/08/13","09:50",0.0,34.2,56.8,1000.3,144.7,1.1,2.6,119.8,0.44,24.4,26.4,"09:46:48",1
"23/08/13","10:00",0.0,34.5,54.6,1000.3,163.4,1.2,3.4,140.6,0.46,24.1,26.4,"09:59:20",1
"23/08/13","10:10",0.0,35.0,53.6,1000.5,164.4,1.1,2.8,127.9,0.47,24.2,26.6,"10:09:36",1
"23/08/13","10:20",0.0,35.4,52.2,1000.3,143.5,1.3,2.9,136.6,0.48,24.1,26.7,"10:17:44",1
"23/08/13","10:30",0.0,36.0,52.3,1000.5,44.7,1.0,2.2,6.7,0.49,24.7,27.0,"10:24:56",1
"23/08/13","10:40",0.0,36.7,50.3,1000.3,124.2,0.7,2.1,132.1,0.50,24.7,26.9,"10:37:20",1
"23/08/13","10:50",0.0,36.2,49.0,1000.3,50.9,1.2,2.5,348.8,0.51,23.8,27.0,"10:47:12",1
"23/08/13","11:00",0.0,35.7,50.1,1000.3,280.3,1.1,2.7,291.7,0.53,23.7,27.2,"10:59:52",1
"23/08/13","11:10",0.0,36.1,49.7,999.6,33.2,1.1,2.7,343.7,0.53,24.0,27.2,"11:05:44",1
"23/08/13","11:20",0.0,36.4,48.6,999.6,140.3,1.2,2.8,156.7,0.39,23.9,27.4,"11:18:48",1
"23/08/13","11:30",0.0,35.9,50.9,999.6,133.3,1.1,3.1,178.8,0.24,24.2,27.4,"11:27:28",1
"23/08/13","11:40",0.0,36.9,48.8,999.3,144.0,1.1,2.6,9.3,0.51,24.4,27.5,"11:32:00",1
"23/08/13","11:50",0.0,37.0,48.6,999.6,203.2,1.8,4.3,210.7,0.58,24.4,27.2,"11:44:40",1
"23/08/13","12:00",0.0,37.3,47.7,999.6,195.0,2.1,4.0,197.7,0.55,24.4,27.6,"11:50:40",1
"23/08/13","12:10",0.0,37.6,46.3,999.6,157.2,1.3,2.9,218.9,0.45,24.1,27.9,"12:02:56",1
"23/08/13","12:20",0.0,38.1,45.1,999.8,119.8,0.8,1.8,120.1,0.45,24.2,28.0,"12:12:40",1
"23/08/13","12:30",0.0,36.4,48.3,999.3,7.3,1.3,3.4,339.3,0.13,23.8,27.9,"12:26:40",1
"23/08/13","12:40",0.0,35.1,52.4,998.9,346.0,1.2,2.4,333.7,0.08,23.9,28.2,"12:34:48",1
"23/08/13","12:50",0.0,35.1,53.1,997.9,0.6,0.8,1.4,26.4,0.11,24.2,28.1,"12:43:44",1
"23/08/13","13:00",0.0,34.9,53.4,997.7,351.6,0.8,2.0,347.5,0.06,24.1,28.1,"12:56:32",1
"23/08/13","13:10",0.0,34.6,53.6,997.2,349.7,0.7,1.4,342.2,0.06,23.8,28.3,"13:02:16",1
"23/08/13","13:20",0.0,34.8,52.6,997.2,344.1,0.6,1.3,353.2,0.10,23.7,28.2,"13:10:16",1
"23/08/13","13:30",0.0,36.2,49.3,997.7,11.7,0.8,1.9,351.9,0.46,23.9,28.2,"13:29:52",1
"23/08/13","13:40",0.0,37.4,47.0,998.2,243.0,1.0,2.0,196.0,0.49,24.2,28.3,"13:35:28",1
"23/08/13","13:50",0.0,38.3,45.2,998.4,81.5,0.8,2.0,310.7,0.51,24.4,28.2,"13:42:24",1
"23/08/13","14:00",0.0,38.9,43.4,998.9,160.4,1.0,3.1,195.2,0.53,24.2,28.6,"13:59:28",1
"23/08/13","14:10",0.0,37.9,45.8,998.6,353.2,1.2,3.4,315.5,0.30,24.2,28.6,"14:09:20",1
"23/08/13","14:20",0.0,36.5,49.6,998.2,356.4,1.7,3.3,6.9,0.17,24.3,28.7,"14:10:08",1
"23/08/13","14:30",0.0,36.6,49.8,998.2,18.9,1.3,3.3,33.7,0.24,24.5,28.6,"14:24:00",1
"23/08/13","14:40",0.0,35.6,50.8,997.4,334.2,1.3,3.2,1.8,0.14,23.9,28.7,"14:31:12",1
"23/08/13","14:50",0.0,36.6,48.4,997.4,256.8,1.0,2.2,228.1,0.28,24.0,28.7,"14:47:20",1
"23/08/13","15:00",0.0,36.6,47.8,997.4,287.1,0.7,2.0,229.6,0.13,23.8,28.5,"14:51:04",1
"23/08/13","15:10",0.0,35.9,51.3,997.2,3.5,1.3,4.2,345.0,0.09,24.3,28.7,"15:09:28",1
"23/08/13","15:20",0.0,34.5,53.3,997.0,340.8,2.2,4.3,339.9,0.07,23.7,28.8,"15:12:56",1
"23/08/13","15:30",0.0,34.5,53.8,996.5,352.8,1.8,4.3,338.5,0.08,23.8,28.6,"15:23:28",1
"23/08/13","15:40",0.0,35.6,51.3,996.3,353.7,1.5,4.5,348.7,0.28,24.0,28.8,"15:37:44",1
"23/08/13","15:50",0.0,36.6,49.1,996.5,348.5,1.8,3.9,335.5,0.29,24.2,28.7,"15:46:16",1
"23/08/13","16:00",0.0,36.2,48.9,996.3,352.5,2.1,4.9,333.2,0.24,23.8,28.7,"15:58:00",1
"23/08/13","16:10",0.0,35.2,50.9,996.5,345.7,2.0,3.5,358.1,0.05,23.5,28.8,"16:00:24",1
"23/08/13","16:20",0.0,34.2,52.6,996.3,349.4,2.1,4.3,353.7,0.02,23.2,28.7,"16:19:04",1
"23/08/13","16:30",0.0,33.7,54.4,995.6,348.8,2.1,5.5,333.7,0.03,23.3,28.5,"16:23:28",1
"23/08/13","16:40",0.0,33.6,54.4,995.3,344.8,2.2,4.0,354.7,0.04,23.2,28.5,"16:31:20",1
"23/08/13","16:50",0.0,33.8,54.3,995.6,343.6,2.8,6.5,320.3,0.08,23.3,28.7,"16:45:52",1
"23/08/13","17:00",0.0,34.0,53.3,995.8,351.4,2.5,4.9,350.5,0.10,23.2,28.2,"16:56:32",1
"23/08/13","17:10",0.0,34.2,52.5,995.6,355.7,1.8,5.1,337.2,0.10,23.1,28.4,"17:02:56",1
"23/08/13","17:20",0.0,34.0,53.8,996.0,355.8,1.6,3.9,349.1,0.08,23.4,28.5,"17:14:40",1
"23/08/13","17:30",0.0,33.4,54.9,996.3,347.8,2.5,4.7,341.0,0.06,23.1,28.2,"17:23:12",1
"23/08/13","17:40",0.0,32.7,56.8,996.0,347.5,3.1,7.0,349.5,0.05,23.0,28.4,"17:33:36",1
"23/08/13","17:50",0.0,32.3,58.5,995.8,343.7,2.8,6.5,355.6,0.03,23.2,28.2,"17:43:04",1
"23/08/13","18:00",0.0,31.9,59.8,995.6,350.0,2.7,6.3,332.6,0.01,23.2,28.3,"17:54:00",1
"23/08/13","18:10",0.0,31.5,61.6,995.3,352.6,2.3,4.4,351.3,0.00,23.3,27.9,"18:00:32",1
"23/08/13","18:20",0.0,31.1,63.6,995.6,351.2,2.7,4.8,330.3,0.00,23.4,28.1,"18:16:00",1
"23/08/13","18:30",0.0,30.8,64.9,995.6,354.7,2.7,4.7,356.3,0.00,23.5,28.0,"18:21:52",1
"23/08/13","18:40",0.0,30.6,66.0,995.3,354.0,2.6,6.4,353.5,0.00,23.6,28.2,"18:34:00",1
"23/08/13","18:50",0.0,30.3,66.9,995.3,351.8,2.0,4.8,11.9,0.00,23.5,27.9,"18:49:44",1
"23/08/13","19:00",0.0,30.1,67.8,995.6,356.3,2.6,5.0,347.0,0.00,23.5,28.0,"18:53:28",1
"23/08/13","19:10",0.0,29.9,68.6,995.3,357.9,1.7,4.0,327.5,0.00,23.5,27.9,"19:02:32",1
"23/08/13","19:20",0.0,29.7,68.8,996.0,344.8,2.5,6.3,343.9,0.00,23.4,27.8,"19:13:36",1
"23/08/13","19:30",0.0,29.5,68.2,995.8,351.3,2.6,4.9,351.5,0.00,23.1,27.7,"19:25:28",1
"23/08/13","19:40",0.0,29.3,67.4,996.3,348.5,2.6,4.3,357.6,0.00,22.7,27.7,"19:30:02",1
"23/08/13","19:50",0.0,29.2,66.7,996.5,352.8,2.5,4.7,1.4,0.00,22.4,27.6,"19:47:28",1
"23/08/13","20:00",0.0,29.0,66.9,996.5,347.3,1.8,4.2,337.8,0.00,22.3,27.5,"19:58:40",1
"23/08/13","20:10",0.0,28.9,66.6,997.0,351.4,1.8,4.7,353.4,0.00,22.1,27.5,"20:01:12",1
"23/08/13","20:20",0.0,28.8,66.6,997.2,354.3,1.5,4.1,338.8,0.00,22.0,27.6,"20:14:00",1
"23/08/13","20:30",0.0,28.8,66.6,997.4,16.0,1.3,4.3,344.5,0.00,22.0,27.6,"20:24:16",1
"23/08/13","20:40",0.0,28.8,66.6,997.7,11.3,1.3,3.4,46.2,0.00,22.0,27.2,"20:31:28",1
"23/08/13","20:50",0.0,28.8,67.1,997.2,347.6,1.1,3.3,336.8,0.00,22.1,27.3,"20:47:36",1
"23/08/13","21:00",0.0,28.7,67.8,997.4,342.1,1.7,5.0,335.3,0.00,22.2,27.2,"20:53:28",1
"23/08/13","21:10",0.0,28.7,68.6,997.4,338.4,1.8,3.3,346.7,0.00,22.4,27.3,"21:06:16",1
"23/08/13","21:20",0.0,28.6,69.3,997.4,334.1,1.7,3.2,305.5,0.00,22.5,27.4,"21:18:32",1
"23/08/13","21:30",0.0,28.5,69.7,997.4,331.0,1.5,2.9,339.9,0.00,22.5,27.2,"21:21:12",1
"23/08/13","21:40",0.0,28.4,70.0,997.0,309.5,0.8,1.9,330.8,0.00,22.4,27.2,"21:30:48",1
"23/08/13","21:50",0.0,28.4,70.0,997.4,287.4,0.7,1.6,339.0,0.00,22.4,27.0,"21:42:24",1
"23/08/13","22:00",0.0,28.4,70.2,997.2,333.5,1.1,1.9,352.6,0.00,22.5,27.1,"21:57:52",1
"23/08/13","22:10",0.0,28.3,72.1,997.2,344.4,1.2,1.9,324.0,0.00,22.8,27.1,"22:00:02",1
"23/08/13","22:20",0.0,27.9,72.5,997.7,342.4,1.3,2.9,335.4,0.00,22.5,27.1,"22:17:36",1
"23/08/13","22:30",0.0,27.8,73.3,997.7,337.2,0.8,1.6,352.2,0.00,22.6,27.0,"22:20:56",1
"23/08/13","22:40",0.0,27.6,74.5,997.0,295.2,1.0,1.8,346.7,0.00,22.7,26.8,"22:38:56",1
"23/08/13","22:50",0.2,27.5,76.1,997.0,324.2,0.7,2.0,310.3,0.00,23.0,27.0,"22:43:04",1
"23/08/13","23:00",1.0,27.2,78.7,997.0,248.7,0.7,2.4,229.5,0.00,23.2,27.0,"22:54:32",1
"23/08/13","23:10",0.2,26.3,81.4,997.2,41.2,0.8,2.0,6.1,0.00,22.9,26.9,"23:02:56",1
"23/08/13","23:20",0.2,25.9,83.3,997.7,84.6,0.5,1.7,94.2,0.00,22.9,27.0,"23:17:28",1
"23/08/13","23:30",0.2,25.7,85.0,997.7,358.9,0.8,2.0,355.1,0.00,23.0,26.8,"23:22:40",1
"23/08/13","23:40",0.2,25.5,86.7,997.9,339.9,1.1,1.6,337.3,0.00,23.2,26.8,"23:30:56",1
"23/08/13","23:50",0.4,25.3,87.8,998.2,303.7,0.8,1.7,337.3,0.00,23.2,26.8,"23:42:16",1
"23/08/13","24:00",0.0,25.1,88.8,998.2,332.7,1.1,2.9,336.0,0.00,23.2,26.6,"23:52:56",1
